Bellingham, Washington, United States (98225)
Lat: 48.76N, Lon: 122.49W
Wx Zone: WAZ503
Local Info
Past Weather Observations for Thursday, July 24, 2014

NOTE: This archive is for the closest National Weather Service station to Bellingham. Information may differ from the station used for current weather conditions.

Click here for Long-term Archive

Time Weather Temperature Dewpoint Humidity Pressure Winds Precip Visibility
23:53
Clear
55°F / 13°C 48°F / 9°C 77% 30.18 in
(1022 mb)
SSE 5.8 mph
(SSE 9 kph)
- 10SM
22:53
Clear
57°F / 14°C 48°F / 9°C 72% 30.18 in
(1022 mb)
SSE 6.9 mph
(SSE 11 kph)
- 10SM
21:53
Clear
59°F / 15°C 50°F / 10°C 72% 30.18 in
(1022 mb)
SSE 9.2 mph
(SSE 15 kph)
- 10SM
20:53
Clear
61°F / 16°C 50°F / 10°C 68% 30.18 in
(1022 mb)
SSE 5.8 mph
(SSE 9 kph)
- 10SM
19:53
Clear
61°F / 16°C 50°F / 10°C 68% 30.18 in
(1022 mb)
SSE 6.9 mph
(SSE 11 kph)
- 10SM
18:53
Clear
63°F / 17°C 50°F / 10°C 64% 30.18 in
(1022 mb)
S 8.1 mph
(S 13 kph)
- 10SM
17:53
Partly Cloudy
64°F / 18°C 50°F / 10°C 60% 30.15 in
(1021 mb)
SSE 9.2 mph
(SSE 15 kph)
- 10SM
16:53
Partly Cloudy
66°F / 19°C 50°F / 10°C 56% 30.18 in
(1022 mb)
S 10.4 mph
(S 17 kph)
- 10SM
15:53
Mostly Cloudy
64°F / 18°C 50°F / 10°C 60% 30.18 in
(1022 mb)
SSE 9.2 mph
(SSE 15 kph)
- 10SM
14:53
Mostly Cloudy
64°F / 18°C 52°F / 11°C 64% 30.18 in
(1022 mb)
SSE 11.5 mph
(SSE 19 kph)
- 10SM
13:53
Overcast
66°F / 19°C 54°F / 12°C 64% 30.18 in
(1022 mb)
SSE 10.4 mph
(SSE 17 kph)
- 10SM
12:53
Overcast
63°F / 17°C 54°F / 12°C 73% 30.18 in
(1022 mb)
SSE 11.5 mph
(SSE 19 kph)
0.01 in
(0.25 mm)
10SM
11:53
Overcast
61°F / 16°C 54°F / 12°C 77% 30.15 in
(1021 mb)
SSE 15 mph
(SSE 24 kph)
0.02 in
(0.51 mm)
10SM
10:53
Overcast
59°F / 15°C 54°F / 12°C 82% 30.15 in
(1021 mb)
SSE 12.7 mph
(SSE 20 kph)
0.03 in
(0.76 mm)
10SM
10:03
Overcast
57°F / 14°C 54°F / 12°C 88% 30.12 in
(1020 mb)
SSE 10.4 mph
(SSE 17 kph)
0.01 in
(0.25 mm)
10SM
09:53
Overcast
57°F / 14°C 54°F / 12°C 88% 30.12 in
(1020 mb)
SSE 12.7 mph
(SSE 20 kph)
0.03 in
(0.76 mm)
10SM
09:26
Overcast
57°F / 14°C 54°F / 12°C 88% 30.12 in
(1020 mb)
S 11.5 mph
(S 19 kph)
0.02 in
(0.51 mm)
10SM
09:19
Overcast
57°F / 14°C 52°F / 11°C 82% 30.12 in
(1020 mb)
S 12.7 mph
(S 20 kph)
0.01 in
(0.25 mm)
10SM
08:53
Overcast
57°F / 14°C 54°F / 12°C 88% 30.12 in
(1020 mb)
S 11.5 mph
(S 19 kph)
0.04 in
(1.02 mm)
10SM
08:44
Overcast
57°F / 14°C 52°F / 11°C 82% 30.09 in
(1019 mb)
S 10.4 mph
(S 17 kph)
0.03 in
(0.76 mm)
10SM
08:00
Overcast
Light Rain
55°F / 13°C 54°F / 12°C 94% 30.09 in
(1019 mb)
S 10.4 mph
(S 17 kph)
0.00 in
(0.00 mm)
9SM
07:53
Overcast
Light Rain
55°F / 13°C 54°F / 12°C 94% 30.09 in
(1019 mb)
SSE 8.1 mph
(SSE 13 kph)
0.05 in
(1.27 mm)
7SM
06:53
Overcast
Light Rain
55°F / 13°C 54°F / 12°C 94% 30.06 in
(1018 mb)
S 10.4 mph
(S 17 kph)
0.04 in
(1.02 mm)
4SM
06:18
Overcast
Light Rain
55°F / 13°C 54°F / 12°C 94% 30.06 in
(1018 mb)
S 11.5 mph
(S 19 kph)
0.02 in
(0.51 mm)
4SM
05:53
Overcast
Light Rain
55°F / 13°C 54°F / 12°C 94% 30.06 in
(1018 mb)
S 9.2 mph
(S 15 kph)
0.03 in
(0.76 mm)
4SM
04:53
Overcast
Light Rain
57°F / 14°C 54°F / 12°C 88% 30.04 in
(1017 mb)
SSE 9.2 mph
(SSE 15 kph)
0.03 in
(0.76 mm)
6SM
04:49
Overcast
Light Rain
57°F / 14°C 54°F / 12°C 88% 30.06 in
(1018 mb)
SSE 8.1 mph
(SSE 13 kph)
0.03 in
(0.76 mm)
6SM
03:53
Overcast
Light Rain
57°F / 14°C 54°F / 12°C 88% 30.04 in
(1017 mb)
S 9.2 mph
(S 15 kph)
0.03 in
(0.76 mm)
9SM
02:53
Overcast
Light Rain
57°F / 14°C 52°F / 11°C 82% 30.04 in
(1017 mb)
S 10.4 mph
(S 17 kph)
0.00 in
(0.00 mm)
9SM
02:40
Overcast
Light Rain
57°F / 14°C 52°F / 11°C 82% 30.04 in
(1017 mb)
SSE 12.7 mph
(SSE 20 kph)
0.00 in
(0.00 mm)
10SM
02:02
Overcast
57°F / 14°C 52°F / 11°C 82% 30.04 in
(1017 mb)
SSE 9.2 mph
(SSE 15 kph)
- 10SM
01:53
Overcast
57°F / 14°C 52°F / 11°C 82% 30.04 in
(1017 mb)
SSE 13.8 mph
(SSE 22 kph)
- 10SM
01:28
Overcast
57°F / 14°C 52°F / 11°C 82% 30.04 in
(1017 mb)
SSE 9.2 mph
(SSE 15 kph)
- 10SM
00:53
Overcast
57°F / 14°C 52°F / 11°C 82% 30.04 in
(1017 mb)
SSE 11.5 mph
(SSE 19 kph)
- 10SM
Time Weather Temperature Dewpoint Humidity Pressure Winds Precip Visibility


Weather for websites

WeatherForYou.com, LLC is not responsible for any damages or problems caused by this service. Current weather conditions are obtained from the closest station including government and personal stations which may have varying degrees of accuracy. Weather forecasts are derived from the NOAA NDFD. Like all things, this site belongs to Jesus Christ... He just trusts me to maintain it. If you have any questions or comments email webmaster@weatherforyou.com

Copyright © 2014, WeatherForYou.com LLC. All rights reserved.